SCP
0 0 1 1 1 0 0 0 0 0 0 0 0 0 0 0 0 0 0 0 0 0 0 0 0 0 0 0 0 0 0 0 0 0 0 0 0 0 0 0 0 0 0
0 0 1 1 1 0 0 0 0 0 0 0 0 0 0 0 0 0 0 0 0 0 0 0 0 0 0 0 0 0 0 0 0 0 0 0 0 0 0 0 0 0 0
0 0 1 1 1 1 1 0 0 0 0 0 0 0 0 0 0 0 0 0 0 0 0 0 0 0 0 0 0 0 0 0 0 0 0 0 0 0 0 0 0 0 0
0 0 1 1 1 1 1 1 0 0 0 0 0 0 0 0 0 0 0 0 0 0 0 0 0 0 0 0 0 0 0 0 0 0 0 0 0 0 0 0 0 0 0
0 0 1 1 1 1 1 1 1 0 0 0 0 0 0 0 0 0 0 0 0 0 0 0 0 0 0 0 0 0 0 0 0 0 -0 0 0 0 0 0 0 0 0
0 1 1 1 1 1 1 1 1 0 0 0 0 0 0 0 0 0 0 0 0 0 0 0 0 0 0 0 0 0 0 0 0 0 -0 0 0 0 0 0 0 0 0
0 1 1 1 1 1 1 1 1 0 0 0 0 0 0 0 0 0 0 0 0 0 0 0 0 0 0 0 0 0 0 0 0 0 0 0 0 0 0 0 0 0 0
0 0 1 1 1 1 1 1 1 0 0 0 0 0 0 0 0 0 0 0 0 0 0 0 0 0 0 0 0 0 0 0 0 0 0 0 0 0 0 0 0 0 0
0 0 0 1 1 1 1 1 0 0 0 0 0 0 0 0 0 0 0 0 0 0 0 0 0 0 0 0 0 0 0 0 0 0 0 0 0 0 0 0 0 0 0
0 0 0 0 0 1 1 0 0 0 0 0 0 0 0 0 0 0 0 0 0 0 0 0 0 0 0 0 0 0 0 0 0 0 0 0 0 0 0 0 0 0 0
0 0 0 0 0 0 0 0 0 0 0 0 0 0 0 0 0 0 0 0 0 0 0 0 0 0 0 0 0 0 0 0 0 0 0 0 0 0 0 0 0 0 0
0 0 0 0 0 0 0 0 0 0 0 0 0 0 0 0 0 0 0 0 0 0 0 0 0 0 0 0 0 0 0 0 0 0 0 0 0 0 0 0 0 0 0
0 0 0 0 0 0 0 0 0 0 0 0 0 0 0 0 0 0 0 0 0 0 0 0 0 0 0 0 0 0 0 0 0 0 0 0 0 0 0 0 0 0 0
0 0 0 0 0 0 0 0 0 0 0 0 0 0 0 0 0 0 0 0 0 0 0 0 0 0 0 0 0 0 0 0 0 0 0 0 0 0 0 0 0 0 0
0 0 0 0 0 0 0 0 0 0 0 0 0 0 0 0 0 0 0 0 0 0 0 0 0 0 0 0 0 0 0 0 0 0 0 0 0 0 0 0 0 0 0
0 0 0 0 0 0 0 0 0 0 0 0 0 0 0 0 0 0 0 0 0 0 0 0 0 0 0 0 0 0 0 0 0 0 0 0 0 0 0 0 0 0 0
0 0 0 0 0 0 0 0 0 0 0 0 0 0 0 0 0 0 0 0 0 0 0 0 0 0 0 0 0 0 0 0 0 0 0 0 0 0 0 0 0 0 0
0 0 0 0 0 0 0 0 0 0 0 0 0 0 0 0 0 0 0 0 0 0 0 0 0 0 0 0 0 0 0 0 0 0 0 0 0 0 0 0 0 0 0
0 0 0 0 0 0 0 0 0 0 0 0 0 0 0 0 0 0 0 0 0 0 0 0 0 0 0 0 0 0 0 0 0 0 0 0 0 0 0 0 0 0 0
0 0 0 0 0 0 0 0 0 0 0 0 0 0 0 0 0 0 0 0 0 0 0 0 0 0 0 0 0 0 0 0 0 0 0 0 0 0 0 0 0 0 0
0 0 0 0 0 0 0 0 0 0 0 0 0 0 0 0 0 0 0 0 0 0 0 0 0 0 0 0 0 0 0 0 0 0 0 0 0 0 0 0 0 0 0
0 0 0 0 0 0 0 0 0 0 0 0 0 0 0 0 0 0 0 0 0 0 0 0 0 0 0 0 0 0 0 0 0 0 0 0 0 0 0 0 0 0 0
0 0 0 0 0 0 0 0 0 0 0 0 0 0 0 0 0 0 0 0 0 0 0 0 0 0 0 0 0 0 0 0 0 0 0 0 0 0 0 0 0 0 0
0 0 0 0 0 0 0 0 0 0 0 0 0 0 0 0 0 0 0 0 0 0 0 0 0 0 0 0 0 0 0 0 0 0 0 0 0 0 0 0 0 0 0
0 0 0 0 0 0 0 0 0 0 0 0 0 0 0 0 0 0 0 0 0 0 0 0 0 0 0 0 0 0 0 0 0 0 0 0 0 0 0 0 0 0 0
0 0 0 0 0 0 0 0 0 0 0 0 0 0 0 0 0 0 0 0 0 0 0 0 0 0 0 0 0 0 0 0 0 0 0 0 0 0 0 0 0 0 0
Wind_Speed
7 9 9 8 8 9 9 9 9 10 10 10 10 10 9 9 9 9 9 9 9 9 9 10 9 10 10 11 11 11 11 11 11 11 11 11 10 10 10 10 9 7 10
8 10 10 9 8 9 9 9 9 9 9 9 9 9 9 9 9 9 9 9 9 9 9 9 9 9 10 10 10 10 10 9 9 8 8 8 9 9 9 9 9 6 9
9 10 9 9 8 9 9 9 9 9 9 9 9 9 9 9 9 9 9 9 9 8 8 9 9 9 9 9 9 8 8 7 7 6 4 3 5 9 9 9 9 9 8
9 10 8 9 8 8 9 9 9 9 9 9 9 9 9 9 9 9 9 9 8 8 8 8 8 8 8 8 8 7 6 5 4 4 2 3 4 8 8 8 8 8 8
8 8 9 10 9 8 8 8 8 8 9 9 10 9 9 9 9 8 8 8 9 8 8 8 8 8 8 7 6 6 5 4 4 3 2 4 4 7 7 7 7 7 7
8 8 9 10 9 8 8 9 8 8 8 9 9 9 9 8 8 8 8 8 8 8 8 8 7 7 6 6 5 4 4 4 4 2 2 4 4 6 6 6 6 6 5
6 7 9 10 9 8 8 8 8 7 8 8 8 8 8 7 7 7 7 7 7 7 7 7 7 6 5 5 4 4 4 5 2 2 3 3 4 5 5 5 5 5 4
6 7 7 9 9 7 7 7 7 7 7 7 7 7 7 7 6 6 6 6 6 6 6 6 5 5 5 4 3 3 4 4 3 2 2 2 3 4 3 3 4 4 4
6 6 5 5 6 7 7 6 7 7 7 7 7 7 6 6 5 5 5 6 5 5 5 5 4 4 3 3 2 2 3 4 2 1 1 2 3 3 2 2 2 3 3
4 5 5 4 4 4 4 6 6 6 7 6 6 6 5 5 4 4 5 5 5 4 4 3 3 2 2 2 2 3 3 3 1 1 1 1 2 1 1 2 2 3 3
3 3 3 4 4 4 3 5 5 5 6 6 5 5 4 2 2 3 4 4 3 3 2 2 2 1 1 1 1 3 3 1 1 1 1 2 1 1 2 2 3 3 3
2 3 3 3 3 3 3 3 2 2 3 3 3 4 2 2 2 2 3 3 2 1 1 1 1 0 0 0 2 2 1 1 0 0 1 1 1 2 3 3 3 3 3
2 2 3 2 2 2 2 2 1 1 1 1 2 3 2 1 2 2 1 2 1 1 0 0 0 1 0 1 1 1 1 1 0 0 0 0 1 3 4 3 3 3 4
2 2 2 2 2 2 2 1 2 1 1 1 1 2 2 1 1 1 1 1 1 0 0 0 1 1 1 1 1 1 2 1 0 0 1 1 2 4 5 5 4 4 4
2 2 2 2 1 2 2 1 2 1 1 1 1 1 2 1 1 1 0 1 0 0 0 0 1 1 1 2 2 1 2 2 1 1 0 2 2 3 5 5 5 5 5
2 2 2 2 1 2 1 1 1 1 1 1 1 1 1 1 1 1 1 1 0 0 0 0 1 1 1 1 2 2 2 1 1 1 1 1 2 3 4 5 5 5 5
3 2 2 1 2 2 2 2 1 1 1 1 1 1 1 1 1 1 1 1 1 0 0 1 1 1 1 1 2 2 2 1 2 2 2 1 1 2 4 5 5 5 6
3 2 2 1 2 3 2 2 1 1 1 1 1 1 1 1 1 1 1 0 1 0 0 0 1 1 1 1 1 2 2 2 2 2 2 2 1 1 2 4 4 5 6
2 2 2 2 2 2 2 2 2 1 1 1 1 1 1 1 0 1 1 0 0 0 0 1 0 0 1 1 2 2 2 2 3 3 2 2 2 2 1 2 3 5 6
2 2 2 2 2 2 2 2 1 1 1 1 1 1 1 1 0 0 1 1 1 0 1 1 1 1 1 1 2 2 3 3 3 2 2 1 1 1 1 1 1 3 5
3 3 3 2 2 2 2 2 1 1 0 0 1 1 1 1 0 0 0 1 1 1 1 1 0 1 1 1 1 2 3 4 3 2 1 1 1 1 1 1 1 1 2
3 3 2 2 2 2 1 1 1 1 1 1 1 1 1 1 1 1 0 1 1 1 1 1 0 0 1 0 0 1 2 3 2 2 1 1 1 1 1 2 1 2 1
3 3 2 2 2 1 1 1 1 1 1 1 1 1 1 1 1 1 1 1 1 1 2 2 1 1 1 1 1 1 1 2 2 2 2 1 1 1 2 2 2 2 2
3 3 2 2 2 1 2 2 3 2 2 2 2 1 1 1 1 2 2 2 2 1 2 2 1 1 1 2 2 1 1 1 1 2 2 2 2 2 2 2 2 2 2
3 3 2 2 2 1 2 2 3 2 2 1 1 2 2 2 2 2 2 2 2 2 2 2 2 2 2 2 2 1 2 2 2 2 3 3 2 2 2 2 2 2 2
3 3 3 2 2 2 2 1 2 3 2 2 1 2 2 2 2 3 3 3 2 2 2 3 3 3 2 2 2 1 2 2 2 2 3 3 3 3 3 3 2 2 2
Wind_Direction
113 124 126 118 112 109 106 105 102 100 95 91 88 85 85 84 80 80 85 89 88 88 87 86 84 83 80 77 76 73 70 69 68 68 69 70 71 69 65 62 59 61 68
118 125 123 117 114 111 108 105 103 101 98 94 90 87 85 83 79 78 82 87 89 89 88 88 85 82 81 78 76 75 72 71 69 65 65 69 73 70 65 61 59 64 64
115 120 122 114 113 114 111 107 102 98 98 97 93 88 87 82 78 76 79 81 86 88 88 88 85 82 81 79 76 76 73 69 66 53 52 69 74 72 66 61 61 63 61
115 121 123 116 113 114 113 110 106 101 99 97 94 91 87 84 79 76 77 79 81 84 88 89 86 83 82 80 78 75 69 64 51 25 50 77 74 74 66 61 61 59 55
108 113 120 121 118 114 113 111 109 106 103 98 95 90 86 84 80 76 76 76 77 78 83 85 83 81 80 79 76 69 58 42 16 15 41 73 73 76 67 59 58 57 51
106 110 122 125 122 119 117 114 111 108 103 99 95 90 86 83 81 78 75 74 73 72 75 80 81 80 76 74 71 60 43 19 5 4 50 68 74 77 68 56 52 51 46
107 111 126 129 127 124 123 119 115 111 108 103 99 95 90 86 84 81 77 77 73 72 74 79 80 77 74 69 60 43 24 3 11 16 42 61 74 79 67 53 47 42 36
102 107 120 131 129 128 128 125 123 119 115 109 103 102 99 93 89 86 82 79 75 73 70 72 78 74 69 65 52 30 11 357 6 14 43 66 84 83 67 49 37 28 20
98 108 113 126 125 123 127 127 124 122 120 115 109 105 103 100 99 95 89 80 75 72 68 66 70 71 66 58 37 12 356 344 341 342 38 64 82 84 64 29 13 360 350
92 112 123 122 121 125 127 123 124 126 126 125 119 111 108 106 105 103 95 82 75 73 68 65 57 57 56 45 14 349 329 326 305 342 51 73 72 49 2 347 338 324 325
92 95 106 115 116 124 137 131 129 131 133 134 132 127 129 140 125 108 101 92 84 72 63 67 43 40 43 360 307 305 312 275 311 41 64 73 51 326 312 315 316 310 316
117 103 94 114 115 119 125 128 147 143 144 153 148 147 147 121 112 111 115 120 116 98 74 53 336 320 60 218 270 280 270 275 260 96 92 81 310 293 298 301 305 303 307
127 105 91 104 114 114 113 132 125 117 126 146 137 134 129 129 127 124 126 139 153 158 133 321 287 275 249 243 254 255 269 282 282 62 138 178 297 288 289 292 296 294 296
113 105 97 78 102 109 108 124 130 114 120 125 123 127 127 121 113 107 112 121 125 125 131 204 269 299 301 285 256 267 286 287 273 177 194 234 276 277 280 285 287 284 283
126 92 94 79 96 102 99 114 118 128 132 127 118 137 132 131 134 123 126 113 100 85 124 295 308 323 326 317 295 280 279 295 302 265 245 258 274 274 275 279 286 286 282
136 122 99 93 126 110 106 98 96 103 105 110 114 121 128 137 132 133 138 123 118 71 3 318 310 319 311 299 293 291 279 275 281 282 242 247 253 265 269 273 283 288 288
133 128 115 111 128 116 113 102 79 74 83 94 105 103 106 119 135 139 138 143 153 81 347 331 323 339 320 305 294 296 296 284 270 265 252 232 227 252 268 272 276 284 288
118 130 125 121 118 118 120 112 105 99 100 97 102 102 91 79 98 123 137 181 168 139 101 291 274 314 312 302 299 300 300 296 278 267 254 235 218 218 253 267 277 283 285
122 131 127 128 122 124 118 115 111 104 101 117 113 103 102 88 85 138 151 168 120 142 255 272 297 300 301 302 291 288 287 281 274 272 254 248 232 208 201 252 271 286 287
131 136 123 106 108 116 119 112 98 87 99 112 109 109 117 111 100 164 157 174 151 165 233 253 285 308 274 288 302 302 287 272 262 250 254 262 255 224 212 223 231 272 282
122 121 133 123 127 127 139 145 139 162 186 138 124 121 122 121 146 202 184 165 147 188 234 248 256 279 305 323 331 310 289 270 252 237 240 252 263 258 243 244 222 235 264
134 132 133 134 138 133 146 163 165 166 182 187 165 147 189 173 162 170 186 196 181 194 228 251 227 210 276 295 326 321 306 305 295 273 246 236 255 280 276 276 263 253 250
141 148 145 138 126 125 127 127 124 121 159 169 188 205 209 196 172 172 201 222 217 199 213 233 225 205 237 270 246 206 221 257 315 284 258 248 247 260 266 265 256 253 260
149 139 127 129 133 149 166 174 177 191 199 199 192 198 198 199 200 190 194 215 220 221 223 234 237 235 208 238 274 266 252 241 248 298 297 280 267 267 265 273 272 261 253
144 144 143 150 152 162 182 190 190 196 204 189 177 188 203 205 212 208 197 204 216 220 221 225 239 237 221 222 231 265 284 286 247 241 277 289 297 280 275 272 264 264 262
137 145 152 154 166 176 184 185 193 189 191 187 195 205 215 210 213 213 203 202 212 220 221 222 228 227 227 226 231 223 231 243 252 249 264 281 286 283 281 269 259 258 262